Location: Newark
(22.8000°N, 86.1800°E)
Time: 09:19:18
(UTC+00:00)

CUBEBUG 2 - Visible Passes

Search period start: 06 June 2020 00:00
Search period end: 16 June 2020 00:00
Orbit: 585 x 698 km, 97.6° (Epoch: 05 June)

Date Brightness Start Highest point End Pass type
(mag) Time Alt. Az. Time Alt. Az. Time Alt. Az.
06 Jun ? 22:34:26 10° NNE 22:38:59 60° E 22:43:38 10° S visible
07 Jun ? 22:58:23 10° N 23:02:59 67° WNW 23:07:40 10° SSW visible
08 Jun ? 21:47:46 10° ENE 21:50:28 15° E 21:53:10 10° SE visible
09 Jun ? 22:10:28 10° NE 22:14:34 30° E 22:18:41 10° SSE visible
10 Jun ? 22:33:59 10° NNE 22:38:36 60° E 22:43:17 10° S visible
11 Jun ? 22:57:57 10° N 23:02:36 67° WNW 23:07:18 10° SSW visible
12 Jun ? 21:47:17 10° ENE 21:50:04 15° E 21:52:50 10° SE visible
13 Jun ? 22:10:01 10° NE 22:14:10 30° E 22:18:19 10° SSE visible
14 Jun ? 22:33:33 10° NNE 22:38:13 61° E 22:42:54 10° S visible
15 Jun ? 22:57:31 10° N 23:02:13 67° WNW 23:06:55 10° SSW visible
